Location: Boiro
(42.6475°N, 8.8834°W)
Time: 02:35:43
(UTC+01:00)

Vanguard 1 Rocket - Pass Details

Date: 10 December 2021
Orbit: 651 x 4224 km, 34.3° (Epoch: 21 January)

Event Time Altitude Azimuth Distance (km) Brightness Sun altitude
Rises 09:37:46 0° 277° (W) 6,410 11.2 5.6°
Reaches altitude 10° 09:42:37 10° 265° (W) 5,892 11.1 6.3°
Maximum altitude 09:57:04 26° 219° (SW) 5,698 11.6 8.3°
Drops below altitude 10° 10:15:27 10° 173° (S) 7,415 13.0 10.8°
Sets 10:23:00 0° 162° (SSE) 8,320 13.6 11.7°
